Flag for United Kingdom Weather past 2 weeks in Bury, England, United Kingdom

Now
54 °F

Partly sunny.


Feels Like: 50 °F
Forecast: 46 / 54 °F
Wind: 13 mph from Northwest

Location: Manchester Airport

Current Time: May 24, 2015 at 1:32:13 PM

Latest Report: May 24, 2015 at 12:50 PM


Visibility: N/A

Pressure: 30.09 "Hg

Humidity: 77%

Dew point: 46 °F

Location of BuryLocation

Historic Weather in Bury — Graph

°F

Bury temperature yesterday

Maximum temperature yesterday: 64 °F (at 3:20 PM)
Minimum temperature yesterday: 46 °F (at 12:50 AM)
Average temperature yesterday: 54 °F

Past Weeks' High & Low Weather Summary

 TemperatureHumidityPressure
High66 °F (May 11, 2:20 PM)100% (May 18, 4:50 AM)30.30 "Hg (May 18, 4:50 AM)
Low41 °F (May 19, 1:50 AM)37% (May 11, 2:20 PM)29.45 "Hg (May 19, 2:20 AM)
Average52 °F76%30.04 "Hg
* Reported May 9 12:20 PM — May 24 12:20 PM, Bury, Weather by CustomWeather, © 2015

Note: Actual official high and low records may vary slightly from our data, if they occured in-between our weather recording intervals... More about our weather records

Advertising

Bury weather history for previous 24 hours

 ConditionsComfort  
Time TempWeatherWind HumidityBarometerVisibility
12:20 PM
Sun, May 24
52 °FPartly sunny.13 mph88%30.09 "HgN/A
11:50 AM52 °FPartly sunny.13 mph88%30.09 "HgN/A
11:20 AM54 °FBroken clouds.15 mph94%30.09 "HgN/A
10:50 AM54 °FBroken clouds.13 mph100%30.09 "HgN/A
10:20 AM54 °FSnow. Broken clouds.9 mph100%30.07 "HgN/A
9:50 AM54 °FDrizzle. Fog.9 mph100%30.07 "Hg2 mi
9:20 AM54 °FFog.10 mph100%30.07 "Hg2 mi
8:50 AM52 °FDrizzle. Fog.9 mph100%30.07 "Hg2 mi
8:20 AM50 °FLight rain. Partly sunny.7 mph100%30.07 "Hg5 mi
7:50 AM50 °FLight rain. Partly sunny.6 mph100%30.07 "Hg4 mi
7:20 AM50 °FDrizzle. Partly sunny.7 mph94%30.07 "Hg1 mi
6:50 AM50 °FDrizzle. Partly sunny.7 mph94%30.07 "Hg3 mi
6:20 AM50 °FDrizzle. Partly sunny.6 mph88%30.07 "Hg4 mi
5:50 AM50 °FPassing clouds.7 mph88%30.07 "HgN/A
5:20 AM50 °FPassing clouds.5 mph94%30.07 "HgN/A
4:50 AM50 °FPassing clouds.6 mph94%30.07 "HgN/A
4:20 AM52 °FPassing clouds.7 mph94%30.07 "HgN/A
3:50 AM52 °FClear.6 mph94%30.09 "Hg10 mi
3:20 AM52 °FClear.8 mph94%30.09 "Hg10 mi
2:50 AM52 °FClear.7 mph94%30.09 "Hg6 mi
2:20 AM50 °FClear.5 mph94%30.09 "Hg6 mi
1:50 AM46 °FCool.5 mph87%30.12 "Hg5 mi
1:20 AM48 °FClear.No wind87%30.15 "Hg10 mi
12:50 AM46 °FPassing clouds.5 mph93%30.15 "HgN/A
12:20 AM46 °FClear.3 mph93%30.15 "Hg10 mi
11:50 PM
Sat, May 23
46 °FCool.5 mph87%30.15 "HgN/A
11:20 PM48 °FCool.3 mph87%30.18 "HgN/A
10:50 PM50 °FClear.No wind82%30.18 "Hg10 mi
10:20 PM54 °FPassing clouds.No wind63%30.18 "HgN/A
9:50 PM55 °FSunny.2 mph59%30.18 "Hg10 mi
9:20 PM57 °FSunny.6 mph59%30.18 "Hg10 mi
8:50 PM59 °FPassing clouds.5 mph63%30.18 "HgN/A
8:20 PM61 °FPassing clouds.5 mph59%30.18 "HgN/A
7:50 PM61 °FPassing clouds.6 mph59%30.18 "HgN/A
7:20 PM63 °FPassing clouds.6 mph56%30.21 "HgN/A
6:50 PM63 °FPassing clouds.6 mph56%30.21 "HgN/A
6:20 PM63 °FPassing clouds.7 mph59%30.21 "HgN/A
5:50 PM63 °FPassing clouds.7 mph59%30.21 "HgN/A
5:20 PM64 °FPassing clouds.6 mph56%30.21 "HgN/A
4:50 PM63 °FPassing clouds.5 mph56%30.24 "HgN/A
4:20 PM63 °FScattered clouds.7 mph56%30.24 "HgN/A
3:50 PM61 °FScattered clouds.3 mph63%30.24 "HgN/A
3:20 PM64 °FScattered clouds.5 mph56%30.24 "HgN/A
2:50 PM61 °FScattered clouds.3 mph63%30.27 "HgN/A
2:20 PM61 °FScattered clouds.5 mph63%30.27 "HgN/A
1:50 PM59 °FScattered clouds.No wind63%30.27 "HgN/A
1:20 PM61 °FScattered clouds.3 mph63%30.27 "HgN/A
Weather by CustomWeather, © 2015

See weather overviewHow to use our weather pages